Big Bear City, CA

3:43 PM PDT on April 30, 2017 (GMT -0700)
Big Bear City

Weather History for KL35 - March, 2014

Change the Weather History Date:

Thursday, March 27, 2014

  Actual Average (KBUO) Record (KBUO)
Temperature  
Mean Temperature 38 °F -  
Max Temperature 46 °F 61 °F 78 °F (2001)
Min Temperature 30 °F 41 °F 42 °F (2001)
Degree Days  
Heating Degree Days 27    
Moisture  
Dew Point 22 °F    
Average Humidity 61    
Maximum Humidity 93    
Minimum Humidity 22    
Precipitation  
Precipitation 0.00 in - - ()
Sea Level Pressure  
Sea Level Pressure 30.00 in    
Wind  
Wind Speed 11 mph (WSW)    
Max Wind Speed 17 mph    
Max Gust Speed 25 mph    
Visibility 10 miles    
Events      
Averages and records for this station are not official NWS values.
T = Trace of Precipitation, MM = Missing Value Source: NWS Daily Summary

Daily Weather History Graph

Daily Weather History Graph

Search for Another Location

Airport or City:

Trip Planner

Search our weather history database for the weather conditions in past years. The results will help you decide how hot, cold, wet, or windy it might be!

Date:

Astronomy

Mar. 27, 2014 Rise Set
Actual Time 6:41 AM PDT 7:04 PM PDT
Civil Twilight 6:16 AM PDT 7:29 PM PDT
Nautical Twilight 5:46 AM PDT 7:59 PM PDT
Astronomical Twilight 5:16 AM PDT 8:29 PM PDT
Moon 4:27 AM PDT (3/27) 4:04 PM PDT (3/27)
Length of Visible Light 13h 13m
Length of Day
12h 23m
Waning Crescent, 12% of the Moon is Illuminated
Mar 27
Waning Crescent
Mar 30
New
Apr 7
First Quarter
Apr 15
Full
Apr 22
Last Quarter

Hourly Weather History & Observations

Time (PDT) Temp. Windchill Dew Point Humidity Pressure Visibility Wind Dir Wind Speed Gust Speed Precip Events Conditions
12:15 AM 32.0 °F 23.6 °F 30.2 °F 93% 29.94 in 7.0 mi West 10.4 mph 19.6 mph N/A   Overcast
12:35 AM 32.0 °F 24.2 °F 30.2 °F 93% 29.94 in 4.0 mi WSW 9.2 mph 17.3 mph N/A   Overcast
12:55 AM 32.0 °F 22.5 °F 28.4 °F 87% 29.93 in 10.0 mi West 12.7 mph 19.6 mph N/A   Mostly Cloudy
1:15 AM 32.0 °F 23.0 °F 28.4 °F 87% 29.94 in 10.0 mi WSW 11.5 mph 17.3 mph N/A   Mostly Cloudy
1:35 AM 32.0 °F 21.2 °F 28.4 °F 87% 29.94 in 10.0 mi West 16.1 mph 23.0 mph N/A   Mostly Cloudy
1:55 AM 32.0 °F 22.1 °F 30.2 °F 93% 29.93 in 10.0 mi WSW 13.8 mph 21.9 mph N/A   Mostly Cloudy
2:15 AM 30.2 °F 20.8 °F 28.4 °F 93% 29.93 in 10.0 mi WSW 11.5 mph 21.9 mph N/A   Scattered Clouds
2:35 AM 30.2 °F 18.5 °F 28.4 °F 93% 29.92 in 10.0 mi West 17.3 mph - N/A   Clear
2:55 AM 32.0 °F 21.6 °F 28.4 °F 87% 29.92 in 7.0 mi West 15.0 mph 20.7 mph N/A   Scattered Clouds
3:15 AM 30.2 °F 18.9 °F 28.4 °F 93% 29.91 in 10.0 mi West 16.1 mph 23.0 mph N/A   Scattered Clouds
3:35 AM 30.2 °F 19.3 °F 26.6 °F 86% 29.91 in 10.0 mi WSW 15.0 mph 23.0 mph N/A   Scattered Clouds
3:55 AM 30.2 °F 19.8 °F 26.6 °F 86% 29.92 in 10.0 mi West 13.8 mph 25.3 mph N/A   Clear
4:15 AM 30.2 °F 19.8 °F 26.6 °F 86% 29.92 in 10.0 mi West 13.8 mph 20.7 mph N/A   Clear
4:35 AM 30.2 °F 19.8 °F 26.6 °F 86% 29.92 in 10.0 mi WSW 13.8 mph 21.9 mph N/A   Clear
4:55 AM 30.2 °F 20.2 °F 26.6 °F 86% 29.93 in 10.0 mi WSW 12.7 mph 19.6 mph N/A   Clear
5:15 AM 30.2 °F 21.3 °F 26.6 °F 86% 29.92 in 10.0 mi WSW 10.4 mph 18.4 mph N/A   Clear
5:35 AM 30.2 °F 20.8 °F 24.8 °F 80% 29.94 in 10.0 mi West 11.5 mph 17.3 mph N/A   Clear
5:55 AM 30.2 °F 23.4 °F 23.0 °F 75% 29.94 in 10.0 mi WSW 6.9 mph 17.3 mph N/A   Clear
6:15 AM 30.2 °F 22.6 °F 24.8 °F 80% 29.94 in 10.0 mi WNW 8.1 mph - N/A   Clear
6:35 AM 30.2 °F 23.4 °F 24.8 °F 80% 29.94 in 10.0 mi WNW 6.9 mph - N/A   Clear
6:55 AM 30.2 °F 21.9 °F 24.8 °F 80% 29.95 in 10.0 mi West 9.2 mph - N/A   Clear
7:15 AM 30.2 °F 23.4 °F 24.8 °F 80% 29.95 in 10.0 mi West 6.9 mph - N/A   Clear
7:35 AM 30.2 °F 24.3 °F 24.8 °F 80% 29.96 in 10.0 mi West 5.8 mph - N/A   Clear
7:55 AM 32.0 °F 28.7 °F 23.0 °F 69% 29.97 in 10.0 mi WSW 3.5 mph - N/A   Clear
8:15 AM 32.0 °F 27.5 °F 23.0 °F 69% 29.98 in 10.0 mi West 4.6 mph - N/A   Clear
8:35 AM 33.8 °F 28.6 °F 23.0 °F 65% 29.98 in 10.0 mi WSW 5.8 mph - N/A   Clear
8:55 AM 35.6 °F 28.0 °F 17.6 °F 48% 29.99 in 10.0 mi SW 10.4 mph - N/A   Clear
9:15 AM 37.4 °F 29.8 °F 14.0 °F 38% 29.99 in 10.0 mi WSW 11.5 mph 20.7 mph N/A   Clear
9:35 AM 39.2 °F 31.2 °F 14.0 °F 36% 30.00 in 10.0 mi WSW 13.8 mph 20.7 mph N/A   Clear
9:55 AM 39.2 °F 32.5 °F 12.2 °F 33% 30.00 in 10.0 mi SW 10.4 mph 19.6 mph N/A   Clear
10:15 AM 41.0 °F 34.7 °F 12.2 °F 31% 30.01 in 10.0 mi SW 10.4 mph 19.6 mph N/A   Clear
10:35 AM 42.8 °F 38.0 °F 10.4 °F 27% 30.01 in 10.0 mi SW 8.1 mph 16.1 mph N/A   Clear
10:55 AM 42.8 °F 37.0 °F 10.4 °F 27% 30.02 in 10.0 mi SW 10.4 mph 17.3 mph N/A   Clear
11:15 AM 44.6 °F 38.8 °F 10.4 °F 25% 30.03 in 10.0 mi WSW 11.5 mph 17.3 mph N/A   Clear
11:35 AM 44.6 °F 39.7 °F 8.6 °F 23% 30.03 in 10.0 mi WSW 9.2 mph - N/A   Clear
11:55 AM 44.6 °F 40.2 °F 10.4 °F 25% 30.03 in 10.0 mi SSW 8.1 mph 19.6 mph N/A   Clear
12:15 PM 46.4 °F 42.4 °F 10.4 °F 23% 30.03 in 10.0 mi SW 8.1 mph - N/A   Clear
12:35 PM 46.4 °F 41.1 °F 8.6 °F 22% 30.04 in 10.0 mi WSW 11.5 mph 18.4 mph N/A   Clear
12:55 PM 44.6 °F 39.2 °F 12.2 °F 27% 30.04 in 10.0 mi SW 10.4 mph - N/A   Clear
1:15 PM 44.6 °F 39.2 °F 10.4 °F 25% 30.03 in 10.0 mi WSW 10.4 mph 19.6 mph N/A   Clear
1:35 PM 44.6 °F 38.1 °F 14.0 °F 29% 30.04 in 10.0 mi West 13.8 mph 20.7 mph N/A   Clear
1:55 PM 44.6 °F 37.8 °F 12.2 °F 27% 30.03 in 10.0 mi WSW 15.0 mph 23.0 mph N/A   Clear
2:15 PM 46.4 °F 40.4 °F 12.2 °F 25% 30.02 in 10.0 mi WSW 13.8 mph 24.2 mph N/A   Clear
2:35 PM 44.6 °F 37.8 °F 14.0 °F 29% 30.02 in 10.0 mi WSW 15.0 mph 24.2 mph N/A   Clear
2:55 PM 44.6 °F 38.1 °F 17.6 °F 34% 30.02 in 10.0 mi West 13.8 mph 21.9 mph N/A   Clear
3:15 PM 44.6 °F 37.4 °F 19.4 °F 37% 30.02 in 10.0 mi SW 16.1 mph 24.2 mph N/A   Clear
3:35 PM 44.6 °F 38.8 °F 23.0 °F 43% 30.02 in 10.0 mi WSW 11.5 mph 18.4 mph N/A   Clear
3:55 PM 42.8 °F 37.0 °F 21.2 °F 42% 30.02 in 10.0 mi WSW 10.4 mph 23.0 mph N/A   Clear
4:15 PM 44.6 °F 38.4 °F 26.6 °F 49% 30.02 in 10.0 mi SW 12.7 mph 18.4 mph N/A   Clear
4:35 PM 42.8 °F 35.8 °F 21.2 °F 42% 30.02 in 10.0 mi WSW 13.8 mph 24.2 mph N/A   Clear
4:55 PM 42.8 °F 35.8 °F 23.0 °F 46% 30.01 in 10.0 mi WSW 13.8 mph 20.7 mph N/A   Clear
5:15 PM 42.8 °F 36.2 °F 24.8 °F 49% 30.02 in 10.0 mi WSW 12.7 mph 19.6 mph N/A   Clear
5:35 PM 42.8 °F 36.6 °F 26.6 °F 53% 30.01 in 10.0 mi WSW 11.5 mph 20.7 mph N/A   Clear
5:55 PM 41.0 °F 35.2 °F 26.6 °F 57% 30.01 in 10.0 mi WSW 9.2 mph 18.4 mph N/A   Clear
6:15 PM 41.0 °F 34.3 °F 28.4 °F 61% 30.03 in 10.0 mi WSW 11.5 mph 17.3 mph N/A   Clear
6:35 PM 39.2 °F 35.0 °F 28.4 °F 65% 30.04 in 10.0 mi WSW 5.8 mph - N/A   Clear
6:55 PM 35.6 °F 29.9 °F 30.2 °F 81% 30.04 in 10.0 mi South 6.9 mph - N/A   Clear
7:15 PM 35.6 °F 31.7 °F 30.2 °F 81% 30.05 in 10.0 mi SW 4.6 mph - N/A   Clear
7:35 PM 35.6 °F 29.9 °F 28.4 °F 75% 30.05 in 10.0 mi SW 6.9 mph - N/A   Clear
7:55 PM 35.6 °F 31.7 °F 28.4 °F 75% 30.05 in 10.0 mi SW 4.6 mph - N/A   Clear
8:15 PM 35.6 °F 30.7 °F 26.6 °F 70% 30.05 in 10.0 mi SW 5.8 mph - N/A   Clear
8:35 PM 35.6 °F - 24.8 °F 65% 30.07 in 10.0 mi Calm Calm - N/A   Clear
8:55 PM 35.6 °F 29.9 °F 23.0 °F 60% 30.07 in 10.0 mi SW 6.9 mph - N/A   Clear
9:15 PM 35.6 °F 29.2 °F 23.0 °F 60% 30.07 in 10.0 mi WSW 8.1 mph - N/A   Clear
9:35 PM 37.4 °F 31.4 °F 24.8 °F 60% 30.08 in 10.0 mi West 8.1 mph - N/A   Clear
9:55 PM 35.6 °F 29.9 °F 24.8 °F 65% 30.09 in 10.0 mi WSW 6.9 mph - N/A   Clear
10:15 PM 35.6 °F 31.7 °F 23.0 °F 60% 30.09 in 10.0 mi NNE 4.6 mph - N/A   Clear
10:35 PM 33.8 °F 30.8 °F 23.0 °F 65% 30.11 in 10.0 mi SW 3.5 mph - N/A   Clear
10:55 PM 33.8 °F 29.6 °F 23.0 °F 65% 30.10 in 10.0 mi WSW 4.6 mph - N/A   Clear
11:15 PM 33.8 °F 30.8 °F 23.0 °F 65% 30.11 in 10.0 mi South 3.5 mph - N/A   Clear
11:35 PM 32.0 °F 27.5 °F 21.2 °F 64% 30.11 in 10.0 mi SW 4.6 mph - N/A   Clear
11:55 PM 32.0 °F 27.5 °F 23.0 °F 69% 30.11 in 10.0 mi West 4.6 mph - N/A   Clear